EW2837 Weather Reports


Display with metric or nautical units.
time (UTC)temp
F
wind
direction
speed
MPH
gust
MPH
rain 1hr
in
rain 24hr
in
rain mn
in
humidity
%
barometer
mb
20260505100524 54 238 1.0 2.0 0.00 0.00 0.00 92 1014.0
20260505100027 54 238 1.0 1.0 0.00 0.00 0.00 92 1014.0
20260505095529 54 238 0.0 1.0 0.00 0.00 0.00 92 1014.0
20260505095029 54 238 0.0 1.0 0.00 0.00 0.00 92 1014.0
20260505094530 54 238 0.0 0.0 0.00 0.00 0.00 92 1013.9
20260505094011 53 238 0.0 0.0 0.00 0.00 0.00 92 1013.9
20260505093513 53 238 0.0 0.0 0.00 0.00 0.00 92 1013.9
20260505093032 53 238 0.0 1.0 0.00 0.00 0.00 92 1013.8
20260505092513 53 238 0.0 1.0 0.00 0.00 0.00 93 1013.8
20260505092015 53 238 0.0 2.0 0.00 0.00 0.00 93 1013.7
20260505091518 53 238 0.0 3.0 0.00 0.00 0.00 93 1013.6
20260505091024 53 246 1.0 3.0 0.00 0.00 0.00 93 1013.5
20260505090525 53 255 0.0 3.0 0.00 0.00 0.00 93 1013.5
20260505090047 53 255 0.0 4.0 0.00 0.00 0.00 93 1013.6
20260505085527 52 231 1.0 4.0 0.00 0.00 0.00 93 1013.5
20260505085028 53 234 0.0 2.0 0.00 0.00 0.00 93 1013.5
20260505084529 52 236 1.0 2.0 0.00 0.00 0.00 93 1013.4
20260505084030 52 228 0.0 3.0 0.00 0.00 0.00 93 1013.4
20260505083511 52 228 0.0 3.0 0.00 0.00 0.00 93 1013.4
20260505083052 52 181 1.0 3.0 0.00 0.00 0.00 93 1013.4
20260505082514 52 245 2.0 3.0 0.00 0.00 0.00 93 1013.3
20260505082015 52 269 1.0 2.0 0.00 0.00 0.00 93 1013.3
20260505081518 52 171 1.0 3.0 0.00 0.00 0.00 93 1013.2
20260505081019 52 197 2.0 3.0 0.00 0.00 0.00 92 1013.3
20260505080542 52 246 0.0 3.0 0.00 0.00 0.00 92 1013.3
20260505080020 52 226 1.0 4.0 0.00 0.00 0.00 92 1013.3
20260505075526 53 155 1.0 5.0 0.00 0.00 0.00 92 1013.3
20260505075026 52 207 3.0 5.0 0.00 0.00 0.00 92 1013.2
20260505074527 53 221 1.0 4.0 0.00 0.00 0.00 92 1013.1
20260505074028 52 238 0.0 2.0 0.00 0.00 0.00 92 1013.0
20260505073529 52 229 0.0 2.0 0.00 0.00 0.00 91 1013.0
20260505073051 53 206 0.0 3.0 0.00 0.00 0.00 91 1012.9
20260505072530 53 257 0.0 4.0 0.00 0.00 0.00 91 1012.7
20260505072011 53 254 2.0 4.0 0.00 0.00 0.00 91 1012.7
20260505071533 53 302 1.0 3.0 0.00 0.00 0.00 91 1012.5
20260505071051 53 246 2.0 4.0 0.00 0.00 0.00 90 1012.5
20260505070550 53 296 0.0 6.0 0.00 0.00 0.00 90 1012.4
20260505070030 53 247 2.0 6.0 0.00 0.00 0.00 90 1012.4
20260505065551 54 303 2.0 7.0 0.00 0.00 0.00 90 1012.3
20260505065030 54 273 4.0 7.0 0.00 0.00 0.00 89 1012.2
20260505064512 54 294 3.0 7.0 0.00 0.00 0.00 89 1012.2
20260505064013 54 216 4.0 8.0 0.00 0.00 0.00 89 1012.1
20260505063516 54 266 3.0 8.0 0.00 0.00 0.00 88 1012.0
20260505063015 54 248 4.0 7.0 0.00 0.00 0.00 88 1012.0
20260505062522 54 247 3.0 6.0 0.00 0.00 0.00 87 1012.0
20260505062024 55 252 4.0 7.0 0.00 0.00 0.00 87 1011.9
20260505061546 55 221 3.0 7.0 0.00 0.00 0.00 86 1011.8
20260505061047 55 249 2.0 4.0 0.00 0.00 0.00 86 1011.8
20260505060528 55 252 2.0 5.0 0.00 0.00 0.00 85 1011.7
20260505060029 56 226 2.0 5.0 0.00 0.00 0.00 85 1011.7
20260505055530 56 234 3.0 6.0 0.00 0.00 0.00 84 1011.6
20260505055013 56 236 2.0 6.0 0.00 0.00 0.00 84 1011.6
20260505054515 56 217 1.0 5.0 0.00 0.00 0.00 83 1011.5
20260505054018 57 221 3.0 5.0 0.00 0.00 0.00 83 1011.5
20260505053519 57 215 1.0 3.0 0.00 0.00 0.00 82 1011.5
20260505053041 57 193 1.0 3.0 0.00 0.00 0.00 82 1011.5
20260505052522 57 230 0.0 5.0 0.00 0.00 0.00 82 1011.4
20260505052024 58 257 3.0 8.0 0.00 0.00 0.00 81 1011.3
20260505051511 58 304 3.0 8.0 0.00 0.00 0.00 81 1011.3
20260505051030 58 261 1.0 6.0 0.00 0.00 0.00 81 1011.2
20260505050532 58 241 3.0 6.0 0.00 0.00 0.00 81 1011.1
20260505041517 62 237 3.0 13.0 0.00 0.00 0.00 74 1010.4
20260505041014 62 250 6.0 13.0 0.00 0.00 0.00 73 1010.4
20260505040512 63 244 4.0 9.0 0.00 0.00 0.00 73 1010.3
20260505040028 63 279 3.0 9.0 0.00 0.00 0.00 72 1010.2
20260505035526 63 292 2.0 6.0 0.00 0.00 0.00 72 1010.1
20260505035025 63 290 3.0 7.0 0.00 0.00 0.00 72 1010.0
20260505034524 64 247 2.0 7.0 0.00 0.00 0.00 71 1009.9
20260505034023 64 253 3.0 7.0 0.00 0.00 0.00 71 1009.9
20260505033525 64 262 3.0 7.0 0.00 0.00 0.00 70 1009.8
20260505033019 65 242 2.0 5.0 0.00 0.00 0.00 70 1009.8
20260505032516 65 234 1.0 5.0 0.00 0.00 0.00 69 1009.8
20260505032016 65 265 1.0 3.0 0.00 0.00 0.00 69 1009.6
20260505031511 66 252 1.0 5.0 0.00 0.00 0.00 68 1009.5
20260505031013 67 323 2.0 6.0 0.00 0.00 0.00 67 1009.5
20260505030512 67 243 4.0 8.0 0.00 0.00 0.00 67 1009.4
20260505030027 67 277 2.0 8.0 0.00 0.00 0.00 67 1009.3
20260505025529 67 260 3.0 9.0 0.00 0.00 0.00 66 1009.2
20260505025047 68 275 4.0 9.0 0.00 0.00 0.00 65 1009.2
20260505024520 68 237 3.0 8.0 0.00 0.00 0.00 65 1009.1
20260505024017 69 272 3.0 8.0 0.00 0.00 0.00 64 1008.9
20260505023515 70 285 4.0 10.0 0.00 0.00 0.00 63 1008.9
20260505023030 70 235 5.0 10.0 0.00 0.00 0.00 63 1008.9
20260505022528 71 298 4.0 7.0 0.00 0.00 0.00 63 1008.8
20260505022026 71 302 3.0 7.0 0.00 0.00 0.00 63 1008.9
20260505021541 72 257 4.0 7.0 0.00 0.00 0.00 64 1008.9
20260505021039 72 207 2.0 8.0 0.00 0.00 0.00 64 1008.9
20260505020516 73 234 5.0 8.0 0.00 0.00 0.00 64 1008.9
20260505020014 73 251 2.0 6.0 0.00 0.00 0.00 62 1008.9
20260505015535 73 248 4.0 6.0 0.00 0.00 0.00 64 1008.9
20260505015014 74 261 2.0 4.0 0.00 0.00 0.00 64 1008.9
20260505014520 74 196 2.0 6.0 0.00 0.00 0.00 63 1008.8
20260505014021 74 274 3.0 9.0 0.00 0.00 0.00 63 1008.9
20260505013522 74 265 4.0 9.0 0.00 0.00 0.00 63 1008.9
20260505013024 74 232 3.0 7.0 0.00 0.00 0.00 61 1008.9
20260505012524 74 196 4.0 7.0 0.00 0.00 0.00 62 1008.9
20260505012026 75 229 4.0 6.0 0.00 0.00 0.00 61 1009.0
20260505011524 75 181 4.0 6.0 0.00 0.00 0.00 62 1009.0
20260505011026 75 206 0.0 4.0 0.00 0.00 0.00 62 1009.1
20260505010528 75 220 2.0 7.0 0.00 0.00 0.00 60 1009.1
20260505010029 75 256 2.0 7.0 0.00 0.00 0.00 60 1009.0
20260505005530 75 198 3.0 6.0 0.00 0.00 0.00 63 1009.1
20260505005029 75 151 2.0 6.0 0.00 0.00 0.00 61 1009.1
20260505004551 75 136 3.0 6.0 0.00 0.00 0.00 62 1009.1
20260505004030 75 246 3.0 6.0 0.00 0.00 0.00 61 1009.1
20260505003530 75 269 2.0 7.0 0.00 0.00 0.00 61 1009.1
20260505003048 75 151 4.0 7.0 0.00 0.00 0.00 62 1009.2
20260505002525 75 167 2.0 6.0 0.00 0.00 0.00 60 1009.2
20260505002026 74 136 3.0 6.0 0.00 0.00 0.00 61 1009.3
20260505001025 76 236 3.0 7.0 0.00 0.00 0.00 59 1009.3
20260505000524 75 161 3.0 7.0 0.00 0.00 0.00 63 1009.4
20260505000025 75 169 3.0 9.0 0.00 0.00 0.00 63 1009.5
20260504235542 75 120 5.0 9.0 0.00 0.00 0.00 59 1009.5
20260504235022 75 157 4.0 7.0 0.00 0.00 0.00 61 1009.5
20260504234523 74 150 2.0 7.0 0.00 0.00 0.00 62 1009.6
20260504234045 75 186 3.0 9.0 0.00 0.00 0.00 62 1009.5
20260504233523 74 176 5.0 9.0 0.00 0.00 0.00 61 1009.5
20260504233044 74 188 3.0 7.0 0.00 0.00 0.00 63 1009.6
20260504232521 73 294 0.0 7.0 0.00 0.00 0.00 61 1009.6
20260504232019 74 166 1.0 7.0 0.00 0.00 0.00 61 1009.6
20260504231517 74 160 4.0 7.0 0.00 0.00 0.00 62 1009.6
20260504231018 74 153 3.0 8.0 0.00 0.00 0.00 62 1009.7
20260504230516 74 240 5.0 9.0 0.00 0.00 0.00 63 1009.8
20260504230022 74 110 5.0 9.0 0.00 0.00 0.00 62 1009.7
20260504225523 73 97 3.0 8.0 0.00 0.00 0.00 61 1009.8
20260504225025 73 78 2.0 8.0 0.00 0.00 0.00 62 1009.9
20260504224547 73 166 4.0 8.0 0.00 0.00 0.00 65 1010.0
20260504224026 73 140 2.0 8.0 0.00 0.00 0.00 63 1010.1
20260504223528 73 126 4.0 8.0 0.00 0.00 0.00 64 1010.2
20260504223029 74 172 5.0 8.0 0.00 0.00 0.00 61 1010.2
20260504222530 73 161 2.0 5.0 0.00 0.00 0.00 63 1010.3
20260504222029 73 109 2.0 6.0 0.00 0.00 0.00 62 1010.4
20260504221528 73 174 3.0 9.0 0.00 0.00 0.00 63 1010.4
20260504221028 73 178 4.0 9.0 0.00 0.00 0.00 63 1010.5
20260504220528 72 42 3.0 7.0 0.00 0.00 0.00 62 1010.6
20260504220029 72 198 3.0 7.0 0.00 0.00 0.00 65 1010.6
20260504215530 72 118 3.0 10.0 0.00 0.00 0.00 62 1010.7
20260504215012 73 180 3.0 10.0 0.00 0.00 0.00 67 1010.8
20260504214516 73 110 3.0 8.0 0.00 0.00 0.00 62 1010.8
20260504214018 72 155 1.0 7.0 0.00 0.00 0.00 61 1010.9
20260504213521 72 229 3.0 7.0 0.00 0.00 0.00 66 1010.9
20260504213023 72 239 4.0 8.0 0.00 0.00 0.00 63 1010.9
20260504212542 71 163 3.0 8.0 0.00 0.00 0.00 67 1011.0
20260504212020 70 79 3.0 9.0 0.00 0.00 0.00 64 1011.1
20260504211519 69 148 1.0 6.0 0.00 0.00 0.00 66 1011.1
20260504211018 70 117 3.0 6.0 0.00 0.00 0.00 63 1011.3
20260504210518 71 158 4.0 6.0 0.00 0.00 0.00 65 1011.3
20260504210019 70 182 4.0 10.0 0.00 0.00 0.00 67 1011.3
20260504205520 69 96 2.0 10.0 0.00 0.00 0.00 66 1011.5
20260504205043 70 121 2.0 9.0 0.00 0.00 0.00 68 1011.6
20260504204522 69 115 1.0 10.0 0.00 0.00 0.00 67 1011.7
20260504204041 69 86 6.0 10.0 0.00 0.00 0.00 66 1011.7
20260504203521 70 84 3.0 9.0 0.00 0.00 0.00 66 1011.8
20260504203023 70 103 3.0 7.0 0.00 0.00 0.00 69 1011.9
20260504202544 68 113 4.0 7.0 0.00 0.00 0.00 69 1011.9
20260504202028 68 111 3.0 9.0 0.00 0.00 0.00 68 1012.0
20260504201527 68 100 6.0 9.0 0.00 0.00 0.00 69 1012.1
20260504201027 68 132 4.0 8.0 0.00 0.00 0.00 70 1012.1
20260504200529 67 91 3.0 8.0 0.00 0.00 0.00 69 1012.1
20260504200028 68 122 4.0 8.0 0.00 0.00 0.00 72 1012.2
20260504195527 67 73 4.0 7.0 0.00 0.00 0.00 69 1012.2
20260504195027 67 156 3.0 8.0 0.00 0.00 0.00 73 1012.3
20260504194525 67 176 4.0 7.0 0.00 0.00 0.00 72 1012.3
20260504194023 66 123 3.0 8.0 0.00 0.00 0.00 72 1012.3
20260504193523 66 165 3.0 9.0 0.00 0.00 0.00 71 1012.4
20260504193019 66 128 5.0 9.0 0.00 0.00 0.00 73 1012.4
20260504192521 65 144 3.0 9.0 0.00 0.00 0.00 71 1012.4
20260504192041 65 111 4.0 9.0 0.00 0.00 0.00 73 1012.5
20260504191519 65 72 6.0 13.0 0.00 0.00 0.00 71 1012.5
20260504191023 66 123 5.0 11.0 0.00 0.00 0.00 71 1012.6
20260504190525 66 176 4.0 9.0 0.00 0.00 0.00 71 1012.6
20260504190027 65 194 4.0 9.0 0.00 0.00 0.00 75 1012.6
20260504185528 64 134 4.0 9.0 0.00 0.00 0.00 74 1012.7
20260504185027 65 150 5.0 10.0 0.00 0.00 0.00 73 1012.8
20260504184527 65 136 5.0 10.0 0.00 0.00 0.00 76 1012.8
20260504184046 64 119 3.0 8.0 0.00 0.00 0.00 75 1012.8
20260504183524 64 173 3.0 8.0 0.00 0.00 0.00 74 1012.7
20260504183024 64 126 3.0 7.0 0.00 0.00 0.00 74 1012.8
20260504182523 64 155 3.0 10.0 0.00 0.00 0.00 73 1012.8
20260504182025 64 70 4.0 10.0 0.00 0.00 0.00 76 1012.8
20260504181526 64 80 3.0 11.0 0.00 0.00 0.00 74 1012.8
20260504181025 64 155 5.0 11.0 0.00 0.00 0.00 77 1012.8
20260504180524 64 105 3.0 10.0 0.00 0.00 0.00 77 1012.8
20260504180025 63 148 3.0 10.0 0.00 0.00 0.00 77 1012.8
20260504175525 63 82 5.0 11.0 0.00 0.00 0.00 76 1012.9
20260504175024 62 127 5.0 11.0 0.00 0.00 0.00 76 1012.9
20260504174545 62 78 5.0 11.0 0.00 0.00 0.00 76 1012.9
20260504174026 62 111 4.0 14.0 0.00 0.00 0.00 76 1012.9
20260504173527 62 167 7.0 14.0 0.00 0.00 0.00 77 1012.9
20260504173029 61 209 5.0 10.0 0.00 0.00 0.00 78 1012.8
20260504172529 62 138 5.0 9.0 0.00 0.00 0.00 77 1013.0
20260504172027 61 150 4.0 9.0 0.00 0.00 0.00 79 1012.9
20260504171527 60 167 4.0 11.0 0.00 0.00 0.00 79 1012.9
20260504171025 60 166 4.0 11.0 0.00 0.00 0.00 77 1012.8
20260504170524 61 157 5.0 9.0 0.00 0.00 0.00 77 1012.8
20260504151033 58 168 4.0 10.0 0.00 0.00 0.00 83 1012.3
20260504150511 58 141 4.0 10.0 0.00 0.00 0.00 83 1012.3
20260504141014 57 94 4.0 10.0 0.00 0.00 0.00 85 1011.6
20260504140514 57 107 4.0 10.0 0.00 0.00 0.00 85 1011.6
20260504130517 54 102 2.0 5.0 0.00 0.00 0.00 92 1010.6
20260504110511 52 64 1.0 2.0 0.00 0.00 0.00 91 1008.8